Simultaneous Nadir Overpasses (SNOs) Predictions

Prediction of SNOs between FY3D and TERRA Satellite Orbit:

Table of predicted SNOs for the next 14.0 days since TLE Epoch: 3/6/2021
Index Date (FY3D) Time (FY3D) Lat,Lon (FY3D) SZA (FY3D ) Date (TERRA) Time (TERRA) Lat,Lon (TERRA) SZA (TERRA ) Distance(km) Time Diff (sec)
1 03/07/2021 17:01:38 -69.41, 104.22 105.68 03/07/2021 17:02:07 -69.44, 104.21 105.65 3.18 29
2 03/07/2021 17:52:22 69.33, -88.35 74.23 03/07/2021 17:51:34 69.33, -88.28 74.23 2.73 48
3 03/10/2021 09:17:58 -69.44,-139.90 106.70 03/10/2021 09:18:33 -69.46,-139.88 106.69 1.87 35
4 03/10/2021 10:08:41 69.31, 27.60 73.16 03/10/2021 10:08:01 69.29, 27.54 73.14 3.31 40
5 03/13/2021 01:34:19 -69.48, -24.01 107.72 03/13/2021 01:35:00 -69.47, -23.98 107.73 1.27 41
6 03/13/2021 02:25:02 69.35, 143.47 72.15 03/13/2021 02:24:27 69.36, 143.51 72.15 1.58 35
7 03/15/2021 17:50:39 -69.46, 91.94 108.80 03/15/2021 17:51:27 -69.48, 91.91 108.78 2.90 48
8 03/15/2021 18:41:22 69.34,-100.58 71.08 03/15/2021 18:40:54 69.36,-100.60 71.10 2.60 28
9 03/15/2021 19:31:47 -68.34, 68.10 109.96 03/15/2021 19:30:40 -68.38, 65.79 109.89 95.16 67
10 03/18/2021 10:07:00 -69.50,-152.18 109.82 03/18/2021 10:07:54 -69.49,-152.20 109.83 1.45 54
11 03/18/2021 10:57:43 69.39, 15.29 70.06 03/18/2021 10:57:21 69.37, 15.28 70.04 2.14 22
12 03/18/2021 11:48:11 -68.54,-176.22 110.82 03/18/2021 11:47:03 -68.60,-178.06 110.73 74.84 68



Historial Predications of SNOs between FY3D and TERRA
